Wetbulb
67.42 72.44 74.91 74.70 74.08 73.62 73.21 72.06 71.28 70.34 69.85 69.17 68.75 68.19 67.20 66.61 66.26 65.83 65.68 65.76 65.74 65.79 66.11 66.07 66.36 66.14 66.41 66.63 66.92 67.38 67.95 68.52 70.08 71.01 72.02 73.14 73.08 73.13 74.04 74.24 74.74 75.08 75.26
68.74 72.41 74.78 74.63 74.33 73.95 73.35 72.69 72.32 71.83 71.12 69.69 69.15 68.59 67.89 67.33 66.99 66.61 66.51 66.72 67.01 67.17 67.36 67.44 67.69 67.20 67.11 66.85 67.08 67.28 67.64 67.92 68.60 70.04 70.07 72.15 72.45 73.64 74.05 74.41 74.33 75.43 75.26
68.55 72.65 74.39 74.73 74.23 74.08 73.83 73.15 72.76 72.49 71.69 70.59 69.76 69.27 68.79 68.23 67.89 67.89 67.69 68.21 68.32 68.30 68.73 68.90 68.93 68.62 68.04 67.76 67.36 67.66 67.55 67.89 68.20 68.84 69.57 71.73 73.77 73.25 73.92 74.38 74.63 74.71 74.31
68.71 72.79 72.72 74.86 74.41 74.33 73.98 73.61 73.02 72.87 72.04 71.28 70.39 69.87 69.44 69.20 68.96 68.84 68.77 69.12 69.43 69.46 69.51 69.53 70.39 69.94 69.49 68.95 68.28 67.67 68.05 68.27 68.52 68.57 67.95 68.35 71.53 72.94 73.58 74.22 74.64 74.73 74.73
69.20 72.02 72.87 74.96 74.51 74.46 74.26 73.71 73.36 73.24 72.82 71.89 70.89 70.30 70.00 70.03 70.51 70.46 69.30 69.39 70.11 70.19 69.95 69.68 70.56 71.03 70.34 69.72 69.28 68.87 68.09 68.09 68.92 69.00 67.19 68.94 70.38 72.84 73.02 73.89 74.28 74.23 74.28
69.43 70.57 73.03 74.80 74.58 74.51 74.51 74.01 73.76 73.51 73.09 72.69 71.59 71.33 70.80 71.16 71.37 71.28 70.22 70.06 70.50 70.74 70.35 70.25 70.34 70.57 70.03 70.38 70.20 69.82 69.17 68.76 68.62 68.15 68.44 69.53 68.68 71.59 71.87 73.44 73.32 74.10 73.81
69.71 71.31 72.05 74.80 74.70 74.68 74.76 74.36 74.26 74.08 73.80 73.53 72.64 71.74 71.64 71.95 71.88 71.63 70.93 71.01 70.93 70.55 70.69 70.52 70.63 71.07 70.94 69.44 69.61 69.85 70.01 69.39 69.74 68.37 68.93 69.19 68.75 70.15 71.48 72.97 73.07 73.79 73.28
69.53 71.84 73.01 74.78 75.00 74.52 74.46 74.51 74.23 74.04 73.82 73.45 73.16 72.67 72.40 72.52 72.05 71.21 70.87 70.60 70.47 70.27 70.25 70.40 70.19 69.91 70.17 69.50 69.22 69.51 69.16 69.34 69.74 68.76 69.93 69.54 69.93 69.01 71.11 72.25 73.44 73.36 72.93
69.73 70.85 73.20 74.57 75.34 74.92 74.45 74.10 74.04 73.81 73.64 73.34 73.11 73.17 72.91 72.35 71.06 70.06 68.86 68.31 68.45 68.65 69.09 69.39 69.37 69.32 69.11 68.66 68.69 68.72 68.99 69.06 69.41 68.91 68.94 70.24 70.76 69.72 71.21 72.05 72.72 72.69 73.05
70.06 69.82 71.27 73.61 74.06 73.46 73.63 74.42 74.11 73.88 73.78 73.49 73.47 72.99 72.53 70.84 69.00 67.19 67.20 67.52 67.03 67.14 67.50 67.81 68.39 68.48 68.98 68.81 68.54 68.41 68.26 69.03 69.25 68.42 68.94 69.36 70.27 69.83 70.40 71.65 72.69 72.15 72.62
68.97 70.58 70.80 71.91 73.38 72.82 71.94 73.78 74.03 73.55 73.57 73.23 72.27 72.23 70.87 68.94 69.22 69.10 67.82 65.14 65.44 65.85 66.24 66.92 67.25 67.42 67.64 68.03 68.20 68.17 68.31 68.06 68.06 67.81 67.99 70.19 68.64 69.66 69.66 70.45 71.94 71.80 72.08
68.01 69.05 70.56 72.44 72.67 72.55 70.52 72.84 73.78 72.53 71.97 70.98 70.41 70.48 70.08 69.74 69.82 68.26 67.07 64.95 65.60 65.79 66.56 67.50 67.39 67.52 67.28 67.70 67.84 68.17 67.74 67.69 67.55 67.11 67.95 69.33 68.62 69.24 69.76 69.78 70.89 71.80 71.78
68.16 68.94 69.92 72.12 73.62 72.87 71.39 72.02 72.21 70.89 71.00 70.78 70.99 70.28 70.19 69.64 69.44 68.61 68.31 68.05 68.54 67.57 67.26 67.62 68.06 67.92 67.81 66.78 67.66 67.07 66.96 66.34 65.92 66.98 68.97 68.00 68.11 68.78 69.24 69.55 70.52 71.40 71.68
66.67 68.43 69.91 70.94 73.00 73.69 71.63 71.48 71.00 70.49 70.45 69.92 69.66 70.22 69.50 68.79 68.88 68.70 67.71 67.67 67.88 67.00 66.86 67.44 67.09 67.25 67.63 67.74 67.05 66.40 66.35 66.68 65.68 65.60 68.68 66.89 67.67 68.64 69.07 69.31 70.35 70.93 71.31
66.31 68.37 69.84 71.01 72.31 72.89 73.25 71.66 70.82 70.02 69.22 69.24 68.41 69.68 69.73 68.76 68.85 68.58 68.11 67.40 67.44 67.84 66.50 66.77 66.97 66.74 66.63 66.64 67.05 66.66 66.19 66.34 66.85 66.38 66.96 67.09 67.11 68.40 68.81 69.12 70.25 70.56 70.79
66.92 68.40 70.06 70.66 72.94 73.12 73.11 72.45 70.79 70.49 69.44 68.56 68.02 69.24 69.80 69.27 68.82 68.47 68.31 68.30 68.65 69.20 67.90 66.49 66.61 66.16 65.86 66.29 66.62 66.94 66.80 66.34 66.62 67.53 67.17 67.06 67.50 68.15 68.51 68.71 69.95 70.03 70.35
67.34 68.78 70.50 71.03 72.22 73.17 72.59 71.77 70.33 69.34 68.80 67.67 68.53 70.11 69.92 69.98 69.44 69.33 70.07 70.05 69.32 70.68 69.07 67.07 66.47 66.68 65.49 65.68 65.82 66.47 66.97 67.20 66.83 66.91 66.80 66.35 67.51 68.35 68.38 68.79 69.21 69.14 69.58
68.32 68.25 69.74 69.52 71.29 72.65 72.68 71.42 69.36 68.57 67.88 67.99 68.77 69.18 69.78 69.95 69.63 70.03 69.54 68.95 69.54 69.21 67.56 65.75 66.48 64.94 64.81 64.59 65.01 65.52 66.16 66.16 66.36 66.32 65.97 66.08 67.38 68.34 68.70 69.37 69.16 69.06 70.08
68.75 68.72 68.59 69.02 70.22 72.05 72.81 70.93 70.27 69.65 68.15 68.43 68.66 68.77 69.38 69.67 69.63 70.08 69.34 69.13 68.92 65.98 66.03 67.01 65.73 65.45 64.36 63.94 64.80 65.45 66.21 64.95 65.68 65.71 65.67 67.07 68.29 68.54 68.32 69.33 69.35 69.50 69.85
68.24 68.89 67.81 68.62 70.93 71.85 71.06 70.12 68.09 67.88 68.10 68.56 68.34 68.80 69.40 69.63 69.28 68.99 68.61 67.84 65.49 65.34 66.40 66.27 65.37 65.71 64.51 64.20 64.07 64.04 64.98 65.23 65.15 64.90 65.71 66.95 68.22 68.67 68.97 69.61 70.39 70.20 69.85
67.00 67.08 67.25 68.08 71.70 70.84 68.62 66.54 66.03 65.59 66.86 67.34 68.15 69.52 69.59 69.35 68.98 68.81 67.72 66.99 67.20 65.08 63.62 64.95 65.39 64.52 64.08 64.93 64.26 63.61 64.02 65.08 65.46 64.98 65.98 66.90 67.84 68.29 69.63 70.08 70.55 71.12 70.54
65.80 66.65 67.57 68.64 69.94 69.86 67.85 68.28 66.83 66.62 66.66 67.98 69.06 69.24 69.62 69.03 68.60 68.08 67.63 66.86 65.84 63.89 64.62 64.96 64.32 64.25 64.19 64.76 62.55 62.25 58.49 60.92 63.28 64.55 66.10 66.80 67.74 68.57 68.81 69.64 70.64 70.87 72.06
65.35 66.53 67.64 69.11 69.03 68.81 69.00 67.84 68.04 68.05 68.12 66.47 66.92 67.19 68.50 68.09 67.98 67.53 66.89 66.27 65.57 65.84 65.48 65.13 64.62 63.13 61.72 63.84 64.75 62.70 58.14 56.59 59.75 63.61 65.55 66.58 67.70 69.42 69.06 70.05 70.50 70.91 71.09
65.35 66.86 68.27 68.27 67.79 68.06 68.32 67.41 67.12 64.36 63.95 66.20 66.65 67.96 67.28 66.94 66.56 66.43 66.62 66.11 66.09 65.72 65.29 64.63 64.11 64.07 63.78 62.35 64.08 63.66 64.31 64.21 58.31 57.75 65.54 66.33 67.47 67.98 68.59 69.59 70.29 68.62 67.66
65.77 66.69 67.63 67.71 67.74 67.98 68.28 68.12 66.24 65.85 65.59 66.67 66.59 65.75 66.47 67.30 66.27 65.54 66.18 65.58 65.53 65.14 65.21 65.01 63.98 64.13 64.42 63.67 62.22 62.31 63.31 63.46 63.67 60.00 59.75 63.15 66.81 67.98 68.95 70.01 69.34 69.48 68.61
65.89 66.52 67.04 67.15 67.12 67.85 67.53 67.67 67.46 67.07 65.60 65.46 65.44 64.64 64.78 65.51 65.51 65.28 65.07 65.38 65.80 65.96 65.17 64.64 64.75 64.50 65.38 65.33 64.52 63.54 63.58 62.61 60.79 63.77 63.52 63.63 63.87 66.10 68.13 68.65 67.91 67.71 66.20
MSLP
1007.39 1008.56 1010.04 1010.41 1011.03 1011.37 1011.64 1012.00 1012.47 1012.90 1013.15 1013.44 1013.72 1013.92 1014.05 1014.21 1014.41 1014.60 1014.82 1014.93 1014.95 1015.01 1015.04 1015.09 1015.11 1015.07 1015.06 1015.03 1015.02 1015.11 1015.09 1015.17 1015.26 1015.18 1014.88 1014.76 1014.68 1014.59 1014.68 1014.75 1014.82 1014.64 1015.24
1007.07 1008.34 1009.76 1010.33 1010.66 1011.01 1011.34 1011.80 1012.28 1012.69 1013.04 1013.31 1013.57 1013.82 1014.01 1014.21 1014.38 1014.56 1014.66 1014.79 1014.87 1014.97 1015.01 1015.02 1015.03 1014.94 1014.97 1014.92 1014.94 1015.03 1015.10 1015.08 1015.16 1015.32 1015.03 1014.73 1014.51 1014.55 1014.56 1014.65 1014.84 1014.53 1015.23
1007.00 1008.16 1009.68 1010.19 1010.55 1010.93 1011.31 1011.74 1012.24 1012.57 1012.85 1013.16 1013.45 1013.74 1013.85 1014.01 1014.16 1014.35 1014.54 1014.62 1014.78 1014.81 1014.87 1014.87 1014.85 1014.90 1014.85 1014.75 1014.90 1014.81 1014.92 1014.99 1015.06 1015.19 1015.07 1014.06 1013.53 1014.48 1014.50 1014.51 1014.77 1014.90 1015.21
1007.26 1008.19 1009.03 1010.12 1010.45 1010.76 1011.21 1011.60 1012.08 1012.60 1012.85 1013.04 1013.35 1013.56 1013.82 1013.97 1014.04 1014.15 1014.23 1014.40 1014.48 1014.59 1014.66 1014.64 1014.67 1014.65 1014.71 1014.70 1014.72 1014.71 1014.74 1014.90 1014.93 1014.88 1014.44 1013.56 1013.51 1014.24 1014.49 1014.42 1014.63 1014.88 1015.21
1007.33 1008.03 1008.61 1009.59 1010.03 1010.69 1011.17 1011.54 1011.94 1012.45 1012.76 1013.03 1013.28 1013.50 1013.68 1013.79 1013.87 1014.05 1014.12 1014.17 1014.25 1014.30 1014.32 1014.36 1014.33 1014.42 1014.46 1014.54 1014.61 1014.62 1014.73 1014.82 1014.82 1014.64 1013.74 1013.71 1013.84 1013.55 1014.31 1014.37 1014.53 1014.89 1015.13
1007.36 1007.97 1008.44 1009.40 1010.00 1010.46 1011.01 1011.41 1011.84 1012.31 1012.54 1012.85 1013.15 1013.35 1013.54 1013.65 1013.74 1013.82 1013.91 1014.00 1014.06 1014.01 1013.95 1014.02 1014.07 1014.18 1014.30 1014.45 1014.49 1014.48 1014.55 1014.55 1014.71 1013.85 1013.50 1013.87 1014.42 1014.06 1014.34 1014.29 1014.39 1014.62 1015.03
1006.95 1007.55 1008.02 1009.38 1009.93 1010.29 1010.76 1011.18 1011.62 1012.01 1012.42 1012.66 1012.94 1013.14 1013.36 1013.48 1013.58 1013.65 1013.68 1013.71 1013.79 1013.80 1013.74 1013.76 1013.83 1013.93 1014.11 1014.17 1014.30 1014.40 1014.41 1014.40 1014.17 1013.39 1013.36 1013.70 1013.74 1014.17 1014.41 1014.33 1014.37 1014.45 1014.97
1006.72 1007.38 1007.73 1009.21 1009.78 1010.09 1010.49 1010.86 1011.40 1011.87 1012.32 1012.49 1012.72 1012.95 1013.15 1013.22 1013.31 1013.39 1013.45 1013.49 1013.54 1013.58 1013.56 1013.53 1013.63 1013.81 1013.91 1014.02 1014.16 1014.30 1014.38 1014.40 1013.90 1013.54 1013.36 1013.25 1013.64 1014.27 1014.33 1014.36 1014.30 1014.44 1014.94
1006.40 1007.19 1007.53 1008.49 1009.49 1010.02 1010.31 1010.60 1011.16 1011.63 1012.05 1012.31 1012.58 1012.82 1012.95 1013.07 1013.11 1013.22 1013.30 1013.34 1013.38 1013.42 1013.44 1013.44 1013.47 1013.63 1013.76 1013.90 1014.02 1014.09 1014.10 1014.27 1013.82 1013.22 1013.22 1013.30 1013.42 1014.16 1014.22 1014.28 1014.27 1014.48 1014.80
1006.00 1006.62 1007.05 1007.60 1008.50 1009.11 1009.65 1010.54 1011.00 1011.46 1011.91 1012.17 1012.45 1012.67 1012.78 1012.93 1012.97 1013.08 1013.09 1013.03 1013.21 1013.34 1013.35 1013.34 1013.32 1013.38 1013.46 1013.62 1013.79 1013.84 1013.87 1013.96 1013.59 1012.91 1012.74 1013.06 1013.68 1014.10 1014.21 1014.11 1014.14 1014.48 1014.74
1005.51 1006.02 1006.58 1007.01 1007.63 1008.35 1008.67 1009.73 1011.01 1011.47 1011.89 1012.16 1012.42 1012.57 1012.70 1012.27 1011.90 1012.05 1012.22 1012.75 1013.03 1013.15 1013.16 1013.12 1013.12 1013.15 1013.13 1013.17 1013.22 1013.42 1013.63 1013.07 1012.44 1012.13 1012.21 1012.73 1013.57 1014.04 1014.13 1014.04 1013.97 1014.24 1014.58
1004.81 1005.46 1006.08 1006.92 1007.29 1007.82 1008.09 1008.80 1010.00 1010.34 1010.93 1011.39 1011.56 1011.72 1012.07 1011.77 1011.81 1011.97 1012.19 1012.52 1012.74 1012.81 1012.82 1012.77 1012.84 1012.80 1012.91 1011.98 1011.52 1012.68 1012.64 1012.23 1011.83 1011.58 1011.89 1012.84 1013.52 1013.94 1013.92 1013.91 1013.77 1013.91 1014.30
1003.63 1004.77 1005.61 1006.49 1007.36 1007.55 1007.63 1008.29 1008.95 1009.57 1010.21 1010.79 1011.26 1011.43 1011.52 1011.52 1011.53 1011.50 1011.35 1011.37 1011.44 1011.81 1011.69 1011.51 1011.51 1011.47 1011.09 1011.41 1010.85 1010.59 1010.90 1011.65 1012.23 1011.49 1011.55 1012.89 1013.56 1013.77 1013.74 1013.58 1013.49 1013.68 1013.98
1002.79 1003.48 1004.91 1006.03 1006.94 1007.56 1007.37 1008.05 1008.27 1008.95 1009.81 1010.29 1010.61 1011.13 1011.30 1011.21 1011.23 1011.35 1010.99 1010.92 1011.19 1011.22 1011.19 1011.29 1010.96 1011.18 1011.43 1011.33 1011.20 1011.30 1010.93 1010.75 1011.64 1012.16 1011.51 1012.81 1013.47 1013.52 1013.45 1013.31 1013.25 1013.46 1013.71
1002.26 1002.66 1003.98 1005.45 1006.41 1007.17 1007.56 1007.65 1008.02 1008.65 1009.44 1009.74 1010.11 1010.44 1010.81 1010.69 1010.70 1010.81 1010.94 1010.97 1010.92 1010.76 1010.74 1010.95 1010.90 1011.07 1011.00 1010.99 1010.80 1010.98 1011.20 1010.88 1010.95 1011.70 1011.43 1012.39 1012.99 1013.13 1013.20 1013.16 1013.13 1013.11 1013.34
1001.70 1002.07 1003.24 1004.71 1005.92 1006.46 1007.16 1007.53 1007.93 1008.61 1008.91 1009.59 1009.58 1009.79 1010.39 1010.52 1010.41 1010.48 1010.78 1011.05 1011.18 1011.12 1010.92 1010.74 1011.06 1010.70 1010.53 1010.55 1010.72 1010.85 1010.62 1010.71 1011.04 1011.57 1011.41 1011.54 1012.48 1012.76 1012.84 1012.79 1012.81 1012.85 1013.00
1001.27 1001.97 1002.79 1004.05 1005.33 1006.00 1006.69 1007.49 1007.76 1008.10 1008.66 1008.95 1009.10 1009.68 1009.96 1010.23 1010.10 1010.41 1010.75 1010.77 1010.86 1010.86 1011.05 1011.11 1011.06 1011.06 1010.66 1010.46 1010.49 1010.80 1010.74 1011.03 1011.25 1011.44 1011.64 1011.45 1011.14 1011.90 1012.27 1012.50 1012.55 1012.56 1012.51
1000.85 1001.29 1002.25 1003.57 1004.53 1005.63 1005.97 1006.87 1007.27 1007.48 1008.22 1008.39 1008.65 1008.97 1009.45 1009.79 1009.91 1010.08 1010.38 1010.40 1010.40 1010.54 1010.93 1011.08 1010.81 1010.44 1009.97 1009.91 1009.96 1010.53 1010.75 1010.46 1010.92 1011.05 1011.24 1011.04 1010.70 1011.03 1011.56 1011.93 1012.00 1012.10 1012.09
1000.31 1001.00 1001.84 1003.03 1003.65 1004.83 1005.55 1006.26 1007.01 1007.52 1007.85 1008.02 1008.30 1008.55 1008.79 1009.15 1009.31 1009.60 1009.96 1009.99 1010.09 1010.57 1010.65 1010.54 1010.45 1010.20 1010.05 1009.74 1010.10 1010.32 1010.56 1010.12 1010.47 1010.52 1010.65 1010.95 1011.15 1010.97 1010.53 1011.22 1011.59 1011.70 1011.83
999.99 1000.73 1001.78 1002.47 1003.20 1004.32 1005.25 1005.84 1006.64 1007.23 1007.58 1007.82 1008.00 1008.20 1008.45 1008.62 1008.85 1009.35 1009.53 1009.76 1010.14 1010.31 1010.23 1010.09 1010.11 1010.15 1009.66 1009.76 1010.26 1010.25 1010.52 1010.03 1010.09 1010.22 1010.47 1010.44 1010.68 1010.55 1010.63 1010.39 1010.80 1011.03 1011.69
1000.05 1000.91 1001.56 1002.07 1002.90 1003.61 1004.35 1005.03 1005.97 1006.58 1007.03 1007.36 1007.70 1008.01 1008.31 1008.31 1008.62 1009.00 1009.32 1009.54 1009.69 1009.83 1009.93 1009.80 1009.93 1009.85 1009.79 1010.07 1010.25 1010.20 1010.36 1010.41 1010.57 1009.94 1010.17 1010.29 1010.46 1010.61 1010.70 1010.31 1010.18 1010.54 1011.33
999.94 1000.82 1001.81 1002.30 1002.87 1003.39 1004.12 1004.79 1005.55 1006.09 1006.47 1006.85 1007.21 1007.81 1007.94 1008.16 1008.46 1008.71 1008.96 1008.97 1009.19 1009.21 1009.37 1009.44 1009.56 1009.53 1009.63 1009.86 1009.84 1009.68 1009.79 1010.17 1009.76 1009.86 1009.74 1010.12 1010.23 1010.33 1010.33 1009.91 1009.97 1010.26 1010.92
999.94 1000.81 1001.65 1002.65 1003.47 1003.76 1004.28 1005.35 1006.10 1006.51 1006.83 1006.94 1007.09 1007.37 1007.65 1007.99 1008.01 1008.36 1008.50 1008.73 1008.80 1009.06 1009.14 1009.21 1009.31 1009.27 1009.25 1009.44 1009.59 1009.36 1009.20 1008.68 1008.60 1009.50 1009.79 1009.64 1009.92 1010.13 1009.92 1010.14 1010.04 1010.35 1010.97
999.90 1000.78 1001.72 1002.69 1003.55 1004.16 1004.75 1005.07 1005.54 1005.59 1005.86 1006.35 1006.98 1007.33 1007.61 1007.97 1007.91 1008.00 1008.29 1008.39 1008.82 1008.77 1008.80 1008.89 1008.86 1008.89 1009.06 1009.14 1009.33 1009.09 1008.98 1008.54 1007.54 1008.95 1009.71 1009.41 1009.63 1009.83 1009.76 1010.22 1010.47 1010.94 1011.39
1000.08 1000.82 1001.88 1002.78 1003.58 1004.38 1004.71 1005.08 1005.51 1005.81 1006.22 1006.60 1007.03 1007.53 1007.62 1007.97 1008.04 1007.96 1008.21 1008.40 1008.40 1008.34 1008.54 1008.48 1008.62 1008.70 1008.48 1008.80 1008.49 1008.65 1008.68 1008.43 1007.90 1007.31 1008.54 1009.28 1009.80 1009.75 1010.03 1010.25 1010.72 1011.00 1011.57
1000.12 1001.03 1001.97 1002.87 1003.77 1004.49 1004.90 1005.32 1005.59 1006.10 1006.40 1006.52 1006.91 1006.98 1007.15 1008.09 1007.97 1008.02 1008.14 1008.25 1008.30 1008.38 1008.24 1008.39 1008.55 1008.60 1008.72 1008.76 1008.73 1008.42 1008.71 1008.47 1007.73 1008.01 1008.16 1008.84 1009.37 1010.11 1010.18 1010.56 1011.17 1011.59 1012.10
Wind_Speed
10 20 21 21 20 19 19 18 17 15 14 13 12 11 9 8 6 5 5 4 4 3 3 2 3 3 3 3 2 1 1 1 3 4 3 3 1 5 7 7 9 13 14
15 21 21 21 21 20 19 17 16 15 14 13 12 10 9 8 7 5 5 5 5 4 4 4 5 4 4 4 4 3 2 1 1 3 5 6 3 7 8 9 10 7 13
18 20 22 21 21 19 18 17 16 15 14 13 12 11 10 9 9 8 7 7 6 6 6 6 6 6 6 5 5 5 4 4 3 4 6 10 5 6 9 10 11 8 13
17 18 21 21 20 19 18 17 16 15 14 13 12 11 10 10 10 10 9 9 10 9 9 8 9 7 7 7 7 7 6 4 4 5 10 9 7 9 8 10 10 10 14
16 18 19 23 21 19 18 16 15 14 13 13 13 12 11 11 11 11 11 12 12 12 12 11 11 10 8 8 8 8 8 7 7 9 11 7 7 9 5 9 10 11 15
16 18 17 22 20 19 18 17 16 15 15 14 14 13 13 12 12 12 13 13 14 15 15 14 13 10 8 10 9 9 10 9 9 12 6 5 9 6 2 7 8 10 15
17 16 18 20 20 19 19 18 17 16 15 14 14 14 14 13 14 13 15 15 16 17 18 17 15 10 9 9 9 10 10 11 12 10 7 7 9 4 5 8 7 12 18
15 15 14 19 19 19 19 18 17 15 14 14 13 13 13 14 13 14 13 13 14 14 15 15 13 12 10 7 9 9 11 10 11 10 8 8 5 2 7 7 9 13 19
14 15 14 16 19 18 18 17 16 16 15 14 12 12 13 13 8 7 8 9 11 12 13 12 12 13 10 10 10 9 9 10 11 8 7 7 13 7 8 8 9 12 17
13 15 16 15 18 18 17 15 15 15 14 12 12 12 11 9 8 9 7 12 9 10 11 12 13 13 12 11 11 9 10 11 12 12 8 5 6 5 9 9 9 12 17
14 16 16 16 16 16 16 15 13 13 12 10 11 10 8 9 9 8 2 3 6 8 9 10 11 12 13 13 13 12 11 9 12 10 7 9 4 8 11 10 9 9 16
19 18 17 15 15 15 12 12 13 13 11 10 10 9 9 8 7 6 7 5 8 9 10 9 6 8 9 9 10 16 9 12 10 8 7 9 3 10 10 11 11 10 13
17 17 18 15 14 15 13 10 8 7 7 7 10 8 9 6 6 6 5 5 7 10 7 10 9 9 8 4 9 8 11 10 5 6 6 8 5 11 10 11 11 10 12
14 19 19 18 16 15 11 10 10 8 7 7 8 10 8 6 7 7 6 6 5 6 6 6 6 4 7 9 9 7 10 8 5 4 6 8 8 10 10 10 11 10 10
15 16 19 18 17 15 13 11 10 9 8 8 7 9 8 7 7 7 7 7 7 7 6 7 6 6 6 8 9 8 10 11 9 4 5 12 8 9 10 10 11 10 12
16 16 17 19 16 16 14 13 10 9 8 8 7 7 8 8 7 8 6 6 7 6 8 6 7 7 6 5 7 9 9 9 7 6 7 6 12 11 11 10 11 10 10
13 13 18 18 19 18 17 14 11 10 8 7 7 7 8 9 9 10 8 7 8 7 10 8 8 8 7 7 7 8 7 7 7 7 7 7 9 13 11 11 10 10 10
14 14 16 16 19 18 16 13 10 9 8 7 6 6 8 10 12 10 8 8 8 6 5 6 8 9 7 7 6 6 7 8 9 7 7 7 5 6 12 10 10 10 12
13 13 17 19 20 19 16 13 10 10 8 6 6 6 7 9 11 9 7 8 7 4 5 8 8 9 7 7 4 7 8 8 8 7 8 5 7 8 6 12 8 9 7
11 12 16 16 18 19 14 11 9 8 7 6 6 6 7 8 9 7 7 6 4 5 7 8 8 7 7 4 6 6 6 7 5 7 6 8 6 7 7 6 9 8 9
9 12 17 17 17 15 14 13 10 9 7 6 5 6 8 8 7 8 6 6 7 6 6 5 7 9 6 6 5 5 6 7 8 6 7 6 7 8 8 7 6 6 7
10 12 13 16 19 15 11 8 8 6 5 3 3 4 6 6 7 6 7 7 7 7 9 8 9 6 6 7 5 6 5 5 7 8 4 7 7 6 7 8 7 8 8
10 12 14 15 17 13 13 9 7 6 3 5 5 5 3 6 6 6 6 6 6 5 6 8 7 8 7 7 8 3 4 5 10 6 8 7 8 6 7 6 7 7 12
12 14 17 18 17 14 13 10 8 4 4 2 2 1 3 5 4 4 5 5 5 5 5 4 6 6 6 7 6 6 5 5 8 7 4 6 7 8 7 6 8 9 11
14 16 17 18 16 14 11 10 8 4 4 3 2 3 4 3 3 4 5 5 5 5 4 3 4 6 6 3 5 5 4 5 5 5 7 6 5 4 4 7 8 11 14
16 18 18 17 14 14 11 10 6 6 3 2 2 4 4 4 4 5 5 5 4 4 4 5 5 5 4 4 5 7 5 4 6 4 5 7 6 5 6 7 8 8 10
Wind_Direction
160 149 167 161 161 166 163 164 166 167 166 164 164 163 162 162 163 166 169 169 172 186 190 223 248 241 243 244 248 229 219 349 352 345 7 21 239 197 192 194 186 204 149
160 158 170 166 169 170 168 169 171 172 172 171 172 175 179 176 183 202 208 210 206 221 233 224 218 242 250 250 244 245 241 213 315 316 303 236 212 213 203 204 211 196 165
164 164 172 175 175 173 171 173 177 177 178 179 181 188 193 197 202 209 227 237 243 244 246 248 243 231 232 247 253 242 244 229 235 268 282 258 216 196 210 208 213 216 171
160 169 179 178 181 178 176 177 180 185 185 186 192 198 208 217 223 230 231 239 246 250 249 247 250 241 234 231 241 247 247 250 245 252 250 237 252 143 220 212 208 193 164
167 177 184 177 183 180 182 180 182 190 192 195 201 212 220 230 237 240 247 248 250 255 260 261 254 246 245 239 237 241 239 252 259 254 251 249 254 141 211 231 201 195 176
175 183 175 178 184 182 185 185 187 193 197 202 208 216 226 237 246 250 251 255 255 260 260 263 262 259 261 262 247 238 242 234 243 247 232 217 257 86 241 237 236 198 178
181 186 180 180 188 184 187 189 191 196 201 204 212 220 229 236 243 253 258 257 257 255 257 259 258 262 258 264 264 266 250 239 250 243 229 244 237 108 256 245 222 184 169
188 187 188 181 191 187 189 191 192 195 201 205 213 224 234 242 249 258 263 264 264 269 272 268 266 260 271 267 270 264 262 258 239 255 260 232 140 184 255 249 229 181 171
196 191 190 188 195 192 190 190 191 193 200 205 213 224 235 254 251 256 263 268 272 273 273 271 269 264 260 264 263 274 262 255 261 251 239 245 145 199 250 252 244 201 189
206 202 201 198 193 199 193 192 192 192 198 203 210 220 233 233 237 241 257 239 252 274 273 270 266 262 262 260 257 254 253 248 246 259 215 247 128 210 249 254 253 214 200
218 208 207 198 198 200 198 182 188 194 199 199 212 217 213 241 233 238 204 305 270 267 266 264 260 259 262 257 250 242 242 237 238 224 247 134 179 246 248 256 262 236 212
228 214 206 209 201 197 203 184 198 194 203 212 221 226 225 243 257 299 305 258 258 259 261 271 263 269 248 248 214 213 228 238 238 235 234 118 187 249 253 254 264 252 221
223 221 215 193 203 201 195 188 189 193 202 206 225 226 235 255 245 243 263 238 236 207 255 218 211 228 240 266 257 222 204 216 247 249 225 128 231 253 255 256 266 262 229
253 218 207 202 196 205 194 191 189 190 196 211 211 219 235 234 232 250 265 263 249 257 271 249 251 260 273 253 253 255 244 232 176 239 226 152 231 254 262 262 270 260 247
254 232 207 201 196 196 209 189 197 196 191 213 218 211 236 250 251 250 249 255 259 270 242 245 272 256 261 249 251 219 220 224 231 208 264 159 224 253 257 261 271 258 253
254 234 207 202 196 190 197 193 184 191 186 214 221 224 217 249 250 257 241 252 253 247 271 270 259 256 253 273 227 249 231 217 208 224 236 204 197 231 245 247 264 260 255
250 236 203 199 194 191 194 188 188 177 206 209 220 213 234 242 246 253 261 256 250 249 246 243 252 244 247 236 242 210 228 215 233 216 235 244 197 196 222 236 240 254 252
250 219 201 191 194 191 185 184 190 178 199 209 214 229 230 245 252 260 259 255 250 254 243 229 240 250 238 235 232 230 224 221 207 227 235 239 232 277 185 211 223 249 252
239 212 183 194 190 186 180 176 183 176 205 206 221 240 249 251 254 254 255 255 234 229 228 231 233 238 234 247 243 227 231 210 194 217 230 223 224 232 226 157 217 223 243
227 187 187 188 184 178 167 166 176 173 195 210 228 247 263 255 259 255 253 242 214 221 232 230 227 234 247 250 232 219 212 240 206 205 209 225 203 205 225 208 184 184 195
189 185 189 181 171 169 167 169 174 189 193 212 233 244 254 258 265 248 242 228 223 225 235 234 228 226 230 219 221 209 203 209 211 209 211 187 208 202 207 218 228 166 178
171 180 180 174 165 165 159 162 177 189 192 223 232 246 262 265 252 245 236 225 204 221 222 226 227 228 220 208 209 199 176 184 203 210 187 204 199 215 213 226 232 182 186
162 164 163 158 156 154 142 138 145 144 173 206 201 230 227 243 242 234 227 226 203 231 230 229 234 231 228 191 204 204 175 201 169 183 204 192 192 201 208 215 209 179 164
154 154 150 149 152 143 159 156 163 184 211 84 249 194 233 230 222 226 215 191 205 225 226 229 210 221 183 193 195 208 257 277 179 170 202 203 199 193 193 194 145 137 147
145 144 147 147 150 147 145 150 162 184 148 172 192 208 257 184 193 169 175 189 217 226 193 209 170 211 191 182 200 213 201 251 250 193 167 175 193 174 194 151 140 137 135
142 144 144 145 142 148 150 144 150 145 166 210 201 236 213 141 178 160 168 192 207 215 183 182 184 205 198 205 207 224 187 215 195 195 187 165 156 165 163 147 131 124 122